| time (UTC) | temp F | wind direction | speed MPH | gust MPH | rain 1hr in | rain 24hr in | rain mn in | humidity % | barometer mb |
| 20260504014516 | 49 | 0.0 | 1.0 | 0.00 | 0.00 | 0.00 | 64 | 1016.2 | |
| 20260504013016 | 50 | 0.0 | 0.0 | 0.00 | 0.00 | 0.00 | 60 | 1016.1 | |
| 20260504011516 | 51 | 0.0 | 0.0 | 0.00 | 0.00 | 0.00 | 59 | 1016.1 | |
| 20260504010015 | 52 | 0.0 | 0.0 | 0.00 | 0.00 | 0.00 | 57 | 1016.0 | |
| 20260504004516 | 54 | 0.0 | 0.0 | 0.00 | 0.00 | 0.00 | 54 | 1016.0 | |
| 20260504003016 | 55 | 0.0 | 0.0 | 0.00 | 0.00 | 0.00 | 51 | 1015.8 | |
| 20260504001515 | 57 | 0.0 | 0.0 | 0.00 | 0.00 | 0.00 | 49 | 1015.8 | |
| 20260504000016 | 58 | 0.0 | 1.0 | 0.00 | 0.00 | 0.00 | 46 | 1015.6 | |
| 20260503234515 | 59 | 0.0 | 1.0 | 0.00 | 0.00 | 0.00 | 42 | 1015.4 | |
| 20260503233015 | 60 | 0.0 | 1.0 | 0.00 | 0.00 | 0.00 | 39 | 1015.4 | |
| 20260503231515 | 62 | 0.0 | 1.0 | 0.00 | 0.00 | 0.00 | 41 | 1015.3 | |
| 20260503230055 | 63 | 0.0 | 1.0 | 0.00 | 0.00 | 0.00 | 36 | 1015.3 | |
| 20260503224515 | 63 | 315 | 1.0 | 3.0 | 0.00 | 0.00 | 0.00 | 35 | 1015.4 |
| 20260503223015 | 64 | 0 | 1.0 | 4.0 | 0.00 | 0.00 | 0.00 | 31 | 1015.4 |
| 20260503221535 | 63 | 0 | 1.0 | 4.0 | 0.00 | 0.00 | 0.00 | 35 | 1015.6 |
| 20260503220015 | 62 | 0 | 1.0 | 4.0 | 0.00 | 0.00 | 0.00 | 35 | 1015.7 |
| 20260503214535 | 61 | 0 | 2.0 | 5.0 | 0.00 | 0.00 | 0.00 | 33 | 1015.7 |
| 20260503213015 | 60 | 293 | 1.0 | 5.0 | 0.00 | 0.00 | 0.00 | 34 | 1015.6 |
| 20260503211537 | 60 | 315 | 2.0 | 7.0 | 0.00 | 0.00 | 0.00 | 36 | 1015.6 |
| 20260503210017 | 59 | 293 | 1.0 | 5.0 | 0.00 | 0.00 | 0.00 | 40 | 1015.5 |
| 20260503204517 | 58 | 0 | 2.0 | 8.0 | 0.00 | 0.00 | 0.00 | 39 | 1015.7 |
| 20260503203017 | 58 | 0 | 2.0 | 8.0 | 0.00 | 0.00 | 0.00 | 42 | 1015.5 |
| 20260503201517 | 59 | 293 | 2.0 | 5.0 | 0.00 | 0.00 | 0.00 | 40 | 1015.8 |
| 20260503200017 | 62 | 315 | 2.0 | 5.0 | 0.00 | 0.00 | 0.00 | 32 | 1016.1 |
| 20260503194517 | 62 | 293 | 1.0 | 10.0 | 0.00 | 0.00 | 0.00 | 32 | 1016.3 |
| 20260503193017 | 62 | 293 | 2.0 | 6.0 | 0.00 | 0.00 | 0.00 | 32 | 1016.4 |
| 20260503191517 | 62 | 315 | 3.0 | 13.0 | 0.00 | 0.00 | 0.00 | 30 | 1016.7 |
| 20260503190037 | 61 | 0 | 2.0 | 7.0 | 0.00 | 0.00 | 0.00 | 31 | 1017.0 |
| 20260503184517 | 60 | 0 | 2.0 | 6.0 | 0.00 | 0.00 | 0.00 | 34 | 1017.1 |
| 20260503183037 | 59 | 0 | 2.0 | 8.0 | 0.00 | 0.00 | 0.00 | 34 | 1017.3 |
| 20260503181517 | 58 | 293 | 3.0 | 8.0 | 0.00 | 0.00 | 0.00 | 34 | 1017.4 |
| 20260503180017 | 58 | 23 | 2.0 | 6.0 | 0.00 | 0.00 | 0.00 | 34 | 1017.4 |
| 20260503174517 | 58 | 315 | 2.0 | 7.0 | 0.00 | 0.00 | 0.00 | 34 | 1017.5 |
| 20260503173016 | 57 | 248 | 2.0 | 9.0 | 0.00 | 0.00 | 0.00 | 37 | 1017.7 |
| 20260503171517 | 57 | 248 | 2.0 | 8.0 | 0.00 | 0.00 | 0.00 | 37 | 1017.9 |
| 20260503081516 | 48 | 0.0 | 3.0 | 0.00 | 0.00 | 0.00 | 59 | 1015.5 | |
| 20260503071516 | 49 | 0.0 | 4.0 | 0.00 | 0.00 | 0.00 | 57 | 1014.9 | |
| 20260503054515 | 50 | 0.0 | 3.0 | 0.00 | 0.00 | 0.00 | 62 | 1014.1 | |
| 20260503053035 | 50 | 0.0 | 0.0 | 0.00 | 0.00 | 0.00 | 68 | 1014.2 | |
| 20260503051515 | 50 | 0.0 | 0.0 | 0.00 | 0.00 | 0.00 | 66 | 1014.1 | |
| 20260503050015 | 50 | 0.0 | 0.0 | 0.00 | 0.00 | 0.00 | 67 | 1014.1 | |
| 20260503044515 | 50 | 0.0 | 0.0 | 0.00 | 0.00 | 0.00 | 67 | 1014.0 | |
| 20260503043057 | 50 | 0.0 | 0.0 | 0.00 | 0.00 | 0.00 | 66 | 1013.9 | |
| 20260503041517 | 50 | 0.0 | 2.0 | 0.00 | 0.00 | 0.00 | 71 | 1013.9 | |
| 20260503040017 | 50 | 0.0 | 2.0 | 0.00 | 0.00 | 0.00 | 71 | 1013.8 | |
| 20260503034516 | 50 | 0.0 | 0.0 | 0.00 | 0.00 | 0.00 | 73 | 1013.9 | |
| 20260503033016 | 51 | 0.0 | 0.0 | 0.00 | 0.00 | 0.00 | 73 | 1013.8 | |
| 20260503031516 | 51 | 0.0 | 0.0 | 0.00 | 0.00 | 0.00 | 72 | 1013.7 | |
| 20260503030016 | 51 | 0.0 | 0.0 | 0.00 | 0.00 | 0.00 | 72 | 1013.8 | |
| 20260503024515 | 51 | 0.0 | 0.0 | 0.00 | 0.00 | 0.00 | 72 | 1013.8 | |
| 20260503023015 | 51 | 0.0 | 0.0 | 0.00 | 0.00 | 0.00 | 71 | 1013.7 | |
| 20260503021516 | 52 | 0.0 | 0.0 | 0.00 | 0.00 | 0.00 | 71 | 1013.7 | |
| 20260503020016 | 52 | 0.0 | 0.0 | 0.00 | 0.00 | 0.00 | 69 | 1013.5 |